Temperature
12 10 9 8 7 7 6 6 6 5 5 4 4 3 3 2 1 1 0 -0 -1 -2 -2 -3 -4 -5 -5 -6 -7 -8 -8 -9 -9 -10 -10 -9 -9 -9 -9 -9 -10 -9 -10
11 10 9 8 8 8 7 7 6 5 5 4 4 3 3 2 1 1 0 -1 -1 -2 -3 -3 -4 -5 -6 -7 -8 -9 -9 -9 -10 -10 -11 -11 -10 -9 -10 -10 -10 -10 -10
13 12 11 10 9 8 8 7 7 6 5 4 4 3 2 2 1 1 0 -1 -2 -2 -3 -4 -4 -5 -6 -7 -8 -9 -9 -10 -10 -10 -11 -11 -11 -11 -10 -10 -10 -10 -10
14 13 12 11 11 10 9 8 7 6 5 4 4 3 2 2 1 1 -0 -1 -2 -2 -3 -4 -5 -6 -7 -8 -8 -9 -10 -10 -10 -10 -11 -11 -11 -12 -12 -11 -10 -11 -10
15 14 14 13 12 11 10 9 7 6 5 4 3 3 2 2 1 0 -0 -1 -2 -3 -3 -4 -5 -6 -7 -8 -9 -9 -10 -10 -11 -11 -11 -11 -11 -11 -12 -12 -11 -11 -10
17 16 14 13 12 11 10 9 8 6 5 4 3 3 2 2 1 0 -0 -1 -2 -3 -4 -4 -5 -6 -7 -8 -9 -9 -10 -10 -11 -11 -11 -11 -11 -12 -12 -12 -12 -12 -11
18 17 15 14 13 12 11 10 8 7 5 4 3 3 2 2 1 0 -0 -1 -2 -2 -3 -4 -5 -6 -7 -8 -9 -9 -10 -10 -10 -10 -11 -11 -11 -11 -12 -12 -12 -12 -11
18 17 16 15 14 13 12 10 9 7 6 5 4 3 2 1 1 0 -1 -1 -2 -3 -4 -5 -5 -6 -7 -8 -9 -9 -10 -10 -10 -10 -10 -10 -11 -11 -11 -12 -12 -12 -12
18 18 17 16 15 14 12 11 10 8 6 5 4 3 2 1 1 -0 -1 -1 -2 -3 -4 -5 -6 -6 -7 -8 -9 -9 -9 -10 -10 -10 -10 -10 -10 -11 -11 -12 -12 -12 -12
18 18 17 16 15 14 12 11 9 8 6 5 4 3 2 1 1 -0 -1 -1 -2 -3 -4 -5 -6 -6 -7 -8 -8 -9 -9 -9 -9 -9 -10 -10 -10 -11 -11 -11 -12 -12 -12
19 18 17 16 15 13 12 10 9 7 6 4 3 2 2 1 0 -0 -1 -2 -2 -3 -4 -5 -5 -6 -7 -8 -8 -9 -9 -9 -9 -9 -9 -10 -10 -10 -11 -11 -11 -11 -11
18 18 17 16 14 13 12 10 9 7 6 4 3 2 2 1 0 -0 -1 -2 -2 -3 -4 -5 -5 -6 -7 -8 -8 -8 -9 -9 -9 -9 -9 -9 -10 -10 -11 -11 -11 -11 -11
18 17 17 16 15 14 12 11 9 7 6 4 3 2 1 1 0 -0 -1 -2 -2 -3 -4 -5 -5 -6 -7 -7 -8 -8 -8 -8 -9 -9 -9 -10 -10 -10 -11 -11 -11 -11 -11
18 17 16 16 15 14 12 11 9 7 6 4 3 2 2 1 0 -1 -1 -2 -2 -3 -4 -4 -5 -6 -7 -7 -8 -8 -8 -8 -8 -9 -9 -10 -10 -10 -10 -11 -10 -10 -11
17 17 16 16 15 13 12 11 9 7 6 4 3 2 1 1 -0 -1 -1 -2 -3 -3 -4 -4 -5 -6 -6 -7 -7 -8 -8 -8 -8 -9 -9 -10 -10 -10 -10 -10 -10 -10 -10
17 17 16 16 15 14 13 12 10 8 6 4 3 2 1 0 -0 -1 -2 -2 -3 -3 -4 -4 -5 -5 -6 -7 -8 -9 -8 -8 -8 -9 -9 -10 -10 -10 -10 -10 -10 -10 -10
17 17 16 16 15 14 13 12 11 9 6 4 3 2 1 0 -0 -1 -2 -2 -3 -3 -4 -4 -5 -5 -6 -7 -8 -8 -8 -8 -9 -9 -9 -10 -10 -10 -10 -10 -10 -11 -11
17 17 16 15 15 14 13 12 10 8 6 5 3 2 1 0 -1 -1 -2 -2 -3 -3 -4 -4 -5 -5 -6 -7 -8 -8 -8 -9 -9 -9 -9 -10 -10 -10 -9 -9 -10 -11 -11
16 15 15 14 14 13 13 11 10 8 6 5 3 2 1 0 -1 -1 -1 -2 -3 -3 -4 -4 -5 -5 -6 -6 -7 -9 -9 -9 -9 -9 -9 -10 -10 -10 -9 -10 -10 -11 -11
15 15 14 14 14 13 12 11 10 8 7 6 4 3 1 0 -0 -1 -2 -2 -3 -3 -4 -4 -5 -6 -6 -6 -7 -9 -9 -9 -9 -9 -9 -10 -10 -9 -10 -10 -11 -11 -11
14 14 14 13 13 12 11 10 9 9 8 6 4 2 1 0 -1 -1 -2 -2 -3 -3 -4 -4 -5 -6 -6 -6 -7 -8 -9 -9 -9 -9 -10 -10 -10 -10 -10 -11 -11 -11 -11
13 13 13 13 12 12 11 10 9 9 7 5 3 2 1 -0 -1 -1 -2 -2 -3 -3 -4 -4 -5 -6 -6 -7 -7 -8 -9 -9 -9 -10 -10 -10 -10 -10 -11 -11 -11 -11 -11
13 12 12 12 12 11 10 9 9 7 6 4 3 2 1 -0 -1 -1 -2 -2 -3 -3 -4 -4 -5 -5 -6 -7 -8 -8 -9 -9 -10 -10 -10 -10 -10 -10 -10 -11 -11 -11 -11
11 11 11 11 11 11 10 9 8 6 5 4 3 2 1 -0 -1 -1 -2 -2 -3 -3 -4 -4 -5 -5 -6 -7 -8 -8 -9 -9 -9 -9 -9 -9 -9 -10 -10 -10 -11 -11 -12
11 11 10 10 10 10 9 8 7 5 4 3 2 1 0 -0 -1 -1 -2 -2 -2 -3 -4 -4 -5 -6 -6 -7 -8 -9 -9 -9 -10 -9 -9 -9 -9 -9 -10 -10 -10 -11 -11
10 10 9 9 9 9 9 8 6 5 3 2 1 1 0 -1 -1 -1 -2 -2 -3 -3 -4 -4 -5 -6 -6 -8 -9 -9 -9 -9 -9 -9 -9 -9 -9 -10 -10 -11 -11 -11 -11
Wind_Speed
17 13 14 14 15 15 15 15 13 11 8 5 4 3 3 3 4 8 9 10 9 9 9 8 9 8 5 5 6 5 7 6 6 7 11 10 9 9 8 11 13 18 23
13 14 14 16 18 19 18 17 16 14 11 7 4 3 3 3 5 7 8 9 9 9 8 8 8 8 5 6 7 6 4 6 6 6 11 10 11 8 12 8 11 12 16
19 17 18 19 19 20 21 19 17 15 12 9 5 3 2 1 2 3 4 8 9 9 9 10 9 9 6 5 7 7 6 7 6 4 5 8 10 16 12 12 12 10 12
18 18 19 19 22 22 18 17 17 15 13 11 8 8 6 5 5 4 4 7 9 9 9 10 10 9 8 6 7 6 6 7 8 7 5 7 9 11 14 12 9 12 14
18 19 21 22 21 18 17 16 16 15 13 12 12 9 8 6 4 4 5 5 7 9 10 11 10 10 9 8 8 7 8 6 7 8 7 8 8 8 10 17 19 15 12
16 17 15 15 15 14 15 15 16 16 14 14 12 11 11 9 7 6 6 5 4 6 10 11 11 11 10 9 9 8 9 8 8 8 8 9 8 10 10 13 17 17 16
14 14 14 16 17 18 18 17 18 16 15 14 13 12 11 10 10 8 7 6 5 4 6 10 10 10 12 13 12 8 8 8 9 9 8 8 9 9 10 13 15 18 16
12 14 16 17 18 19 20 19 20 17 16 15 14 12 11 8 7 9 7 7 6 6 9 11 11 12 13 13 11 7 8 8 9 11 10 9 10 9 10 10 13 16 15
12 13 13 15 17 19 21 21 20 17 16 16 13 12 11 10 9 8 7 6 6 7 10 10 10 12 12 12 10 8 9 9 10 10 11 10 10 9 9 10 10 11 16
11 11 12 14 16 17 17 16 18 18 14 15 13 12 11 10 9 8 8 8 7 8 8 8 8 9 10 11 8 9 10 10 11 10 12 12 11 10 10 10 10 10 13
14 14 13 13 12 12 14 16 16 15 14 15 13 11 10 10 9 8 9 8 7 7 7 7 8 9 9 8 9 10 10 11 12 13 13 15 13 11 10 10 10 11 11
11 11 11 10 12 15 15 17 17 16 15 14 13 12 10 9 9 9 9 7 8 7 7 7 8 9 9 9 9 11 12 12 14 15 15 16 13 13 11 11 11 11 12
11 9 9 12 15 16 16 17 17 17 15 13 13 12 11 11 10 10 8 8 8 7 7 7 9 9 10 10 10 11 12 13 14 15 15 16 14 14 12 12 12 11 12
10 9 10 12 14 15 16 17 17 16 15 14 14 14 13 12 11 9 8 8 7 7 8 8 9 10 10 10 11 12 13 14 14 14 14 14 13 14 14 13 13 12 11
11 11 13 13 13 14 15 16 16 16 16 15 15 15 12 11 9 9 8 8 7 8 7 8 9 9 9 9 11 12 12 12 12 11 11 13 16 19 16 13 11 10 9
12 12 13 13 15 17 17 17 17 16 15 16 16 13 11 11 10 9 8 8 8 7 7 8 9 10 10 16 21 16 9 8 9 10 10 11 14 17 22 24 22 18 12
13 13 13 15 16 17 18 19 18 15 16 16 14 13 13 12 11 10 9 9 8 7 8 8 8 10 12 19 19 20 10 7 8 8 9 10 12 17 12 18 19 16 19
13 12 11 12 13 13 14 13 13 15 17 16 15 14 14 13 11 10 10 9 7 7 7 8 8 9 11 17 18 18 7 7 8 8 9 10 12 14 16 10 8 9 11
12 11 10 10 10 11 12 13 14 14 16 17 17 16 15 14 12 12 11 9 7 7 7 7 8 8 10 15 16 16 4 6 8 8 9 10 11 20 22 9 7 9 10
10 10 9 8 9 10 12 14 16 17 20 20 18 16 15 14 14 13 11 8 7 8 7 7 7 7 8 12 14 14 4 6 7 6 8 15 17 21 20 7 7 10 9
13 11 9 9 10 9 13 16 17 21 19 16 15 15 15 15 13 11 9 8 8 7 6 6 6 6 8 10 13 14 5 5 6 6 7 9 20 20 19 16 8 14 12
13 12 10 11 8 10 14 17 20 17 13 14 15 15 15 13 12 11 10 8 8 7 6 6 6 5 6 8 10 13 12 11 5 6 7 10 18 18 18 14 16 20 16
13 10 10 11 9 11 15 19 17 12 14 15 16 14 14 13 12 12 10 8 7 6 6 5 5 5 4 6 12 12 13 14 7 6 12 15 17 15 12 16 19 15 10
12 10 9 11 12 12 16 18 11 13 16 17 16 14 14 14 12 10 10 9 8 7 6 6 6 5 4 5 6 6 7 9 8 6 9 13 14 12 13 13 11 9 9
11 9 9 12 14 11 14 14 12 15 17 16 15 15 14 14 13 12 11 10 9 9 8 7 6 5 5 7 10 7 4 4 5 4 3 5 7 7 8 8 8 8 9
11 11 11 12 13 10 13 13 14 16 17 16 15 13 12 12 11 11 9 14 13 14 15 12 9 8 9 10 10 10 10 9 9 5 4 5 6 8 9 10 10 9 9
Wind_Direction
222 208 201 191 184 183 183 182 179 177 166 160 168 184 215 229 248 254 247 243 249 261 269 277 285 288 279 278 289 295 299 297 299 307 313 303 283 279 285 286 290 293 293
222 212 201 193 192 190 189 187 186 182 179 175 166 171 180 211 233 242 244 244 252 263 271 272 274 280 279 285 292 296 291 298 314 308 318 316 313 306 311 291 293 293 295
224 215 206 201 198 197 194 192 189 185 182 171 154 152 151 234 241 234 236 245 258 267 272 277 277 276 268 272 282 285 281 297 300 274 282 304 310 316 307 303 298 295 297
225 218 211 206 205 203 195 191 186 184 181 172 172 172 187 205 218 216 227 252 262 266 272 277 277 273 269 264 277 293 279 285 299 296 259 261 282 300 309 309 299 299 300
224 220 214 211 208 199 192 189 184 184 181 179 180 181 197 208 217 226 242 250 259 262 269 275 274 269 267 267 271 277 275 271 279 289 292 291 287 275 291 305 310 308 302
225 224 217 206 201 191 189 186 185 187 184 184 184 187 196 204 214 228 238 245 246 257 264 271 268 266 266 267 269 267 268 268 270 277 280 286 289 296 294 297 303 305 305
220 218 209 202 197 191 191 189 189 191 188 188 191 194 197 199 210 220 228 235 242 246 252 263 262 263 265 268 269 263 266 267 268 271 277 277 277 281 286 291 298 300 301
219 217 212 204 199 194 191 191 193 193 189 192 196 196 195 198 209 214 217 225 232 241 252 256 258 261 266 273 271 266 267 269 266 276 275 276 276 273 275 281 292 299 301
227 221 212 203 198 195 195 194 193 193 193 195 194 196 197 199 207 213 217 224 231 248 252 252 255 261 265 267 267 266 267 269 270 272 274 272 275 272 271 272 274 285 297
240 230 216 207 201 198 195 193 194 195 192 192 195 200 200 202 205 209 219 227 234 246 252 254 256 261 264 266 263 266 268 269 273 274 273 273 274 272 272 271 273 273 279
236 231 221 209 198 189 190 194 195 194 193 194 195 195 196 199 202 211 222 227 234 241 244 249 255 261 264 263 263 266 271 271 276 278 276 275 274 274 274 273 273 275 276
240 231 216 196 192 195 196 197 198 198 198 194 192 197 195 195 204 216 223 225 235 240 244 251 259 264 268 264 264 271 278 274 278 279 278 278 278 274 274 273 272 275 275
252 236 210 202 203 202 201 201 201 201 196 190 192 196 198 200 209 216 222 226 233 242 249 252 260 265 268 269 268 268 272 274 274 277 277 277 277 276 273 271 273 274 277
252 236 223 216 212 207 204 203 203 199 193 191 194 200 203 205 208 212 218 225 231 243 252 256 261 266 269 271 272 271 272 273 275 276 275 275 274 272 271 272 269 272 275
252 239 231 225 216 211 209 206 204 198 193 193 198 205 202 199 202 209 217 224 232 246 251 261 268 271 274 272 268 266 270 273 279 279 276 278 285 288 287 283 279 279 278
257 249 238 228 221 216 212 207 205 198 192 196 202 200 194 197 203 208 215 225 235 245 254 261 269 275 280 290 297 298 281 281 284 287 288 290 291 294 299 301 301 302 302
266 258 244 232 227 219 211 207 203 191 192 198 198 194 194 200 205 208 214 226 235 244 255 261 265 271 280 295 301 305 305 289 286 286 291 300 299 304 292 291 296 300 301
268 265 253 240 231 220 208 202 190 190 195 198 197 194 193 200 201 204 218 227 230 239 251 259 264 270 283 300 305 309 311 290 286 283 284 288 288 294 297 286 277 273 281
267 267 258 246 233 214 197 185 190 192 197 201 200 196 194 196 199 210 220 223 225 237 244 253 261 269 284 301 306 312 289 290 289 287 291 300 291 301 316 323 299 295 291
278 275 271 251 234 212 181 186 196 198 205 205 201 194 193 196 202 211 215 215 220 234 244 253 256 265 275 297 307 313 289 293 294 291 295 312 315 319 332 335 312 307 304
282 278 266 251 238 198 181 198 203 210 209 199 192 190 192 197 202 205 209 212 219 229 238 251 259 263 274 296 308 313 310 298 302 308 309 310 321 331 337 338 320 319 335
284 276 264 259 239 191 191 208 216 214 193 186 188 190 192 194 197 200 206 209 212 223 236 246 261 255 268 290 301 313 320 323 305 305 305 310 326 336 339 335 332 339 340
282 277 263 263 245 205 203 218 221 192 181 185 191 191 191 193 192 195 200 204 207 215 228 232 251 262 262 280 301 310 318 323 321 305 320 328 334 337 334 332 339 342 331
285 282 271 263 257 225 216 225 210 181 183 190 192 190 190 192 195 197 199 203 205 209 218 226 238 250 262 272 280 277 289 307 314 314 324 333 335 336 333 335 333 329 323
288 282 268 264 261 239 225 220 199 184 189 193 193 191 192 191 194 199 203 203 206 203 204 213 219 228 249 267 286 297 281 286 299 327 328 329 331 333 331 329 327 327 328
293 290 279 271 269 249 232 215 198 190 191 194 195 193 191 191 192 194 203 217 214 222 225 222 218 226 244 276 295 306 314 322 331 347 327 327 327 327 327 327 327 328 330
Height
1543 1546 1548 1549 1550 1550 1551 1552 1553 1554 1556 1556 1556 1554 1553 1551 1549 1546 1544 1541 1538 1535 1532 1528 1525 1521 1517 1514 1510 1506 1502 1499 1495 1489 1482 1477 1474 1470 1465 1461 1455 1449 1444
1537 1539 1541 1542 1542 1542 1543 1544 1545 1547 1549 1550 1550 1549 1548 1546 1544 1542 1539 1537 1534 1531 1527 1524 1520 1517 1513 1509 1506 1502 1498 1494 1492 1488 1480 1472 1467 1462 1459 1454 1448 1443 1438
1529 1531 1533 1533 1534 1534 1535 1536 1538 1540 1543 1544 1544 1543 1542 1541 1539 1537 1535 1532 1530 1527 1523 1519 1516 1512 1509 1505 1501 1498 1494 1490 1487 1486 1482 1475 1465 1458 1450 1446 1442 1437 1432
1522 1524 1525 1525 1525 1526 1528 1530 1532 1533 1535 1537 1537 1537 1536 1535 1534 1532 1530 1528 1525 1522 1518 1515 1511 1508 1504 1500 1497 1494 1491 1486 1482 1480 1477 1474 1467 1460 1447 1439 1435 1431 1426
1515 1516 1516 1517 1519 1521 1521 1523 1524 1526 1528 1529 1530 1530 1530 1529 1528 1526 1525 1523 1520 1517 1514 1510 1507 1503 1499 1496 1492 1489 1486 1482 1478 1474 1470 1466 1462 1457 1450 1438 1428 1422 1418
1508 1509 1511 1512 1513 1514 1514 1515 1517 1518 1520 1522 1523 1524 1524 1523 1522 1520 1519 1517 1515 1512 1509 1505 1502 1498 1494 1491 1487 1483 1480 1476 1473 1469 1465 1461 1456 1451 1445 1437 1427 1418 1411
1503 1503 1504 1504 1504 1505 1506 1507 1508 1510 1512 1514 1516 1517 1517 1516 1515 1514 1513 1511 1509 1506 1503 1500 1496 1493 1489 1485 1481 1477 1474 1470 1467 1463 1459 1455 1450 1446 1440 1433 1424 1415 1407
1497 1497 1497 1497 1497 1498 1498 1499 1500 1502 1504 1506 1508 1510 1510 1510 1509 1508 1507 1505 1503 1500 1497 1494 1491 1487 1483 1480 1476 1472 1468 1464 1460 1456 1453 1448 1444 1440 1434 1429 1422 1412 1403
1491 1491 1491 1491 1491 1491 1491 1492 1493 1495 1497 1499 1501 1502 1503 1503 1502 1502 1500 1499 1497 1495 1492 1488 1485 1481 1478 1474 1470 1465 1462 1458 1454 1450 1446 1441 1437 1432 1428 1423 1418 1412 1402
1486 1485 1485 1485 1484 1485 1485 1486 1486 1488 1490 1492 1494 1495 1496 1496 1496 1495 1494 1493 1491 1489 1486 1482 1479 1475 1472 1468 1464 1460 1455 1451 1447 1443 1439 1434 1430 1425 1420 1416 1411 1406 1400
1480 1479 1479 1479 1479 1479 1478 1478 1479 1481 1482 1484 1486 1488 1489 1489 1489 1489 1488 1487 1485 1483 1480 1477 1473 1469 1466 1462 1458 1453 1450 1445 1441 1437 1432 1427 1423 1417 1413 1408 1404 1399 1394
1475 1474 1474 1473 1472 1471 1471 1471 1471 1473 1475 1477 1479 1480 1482 1482 1482 1482 1482 1481 1479 1477 1474 1471 1467 1464 1460 1456 1452 1447 1444 1439 1435 1430 1425 1420 1415 1410 1406 1401 1397 1392 1388
1471 1469 1468 1466 1465 1464 1463 1463 1464 1465 1467 1470 1471 1473 1474 1475 1475 1476 1475 1474 1473 1471 1468 1465 1461 1458 1454 1450 1446 1442 1437 1433 1429 1424 1419 1413 1408 1403 1399 1394 1390 1385 1381
1465 1463 1461 1460 1458 1457 1456 1456 1456 1457 1459 1461 1462 1464 1466 1468 1469 1469 1469 1468 1467 1465 1462 1459 1456 1452 1448 1443 1439 1436 1432 1428 1423 1418 1413 1407 1402 1397 1392 1387 1383 1379 1374
1459 1457 1455 1454 1452 1450 1448 1447 1448 1449 1451 1452 1454 1456 1459 1461 1462 1462 1462 1462 1460 1459 1456 1454 1450 1446 1442 1437 1433 1430 1426 1422 1417 1412 1407 1402 1397 1392 1387 1382 1377 1373 1368
1454 1452 1450 1447 1445 1443 1441 1440 1439 1440 1442 1443 1445 1449 1451 1453 1454 1455 1456 1455 1454 1453 1451 1448 1444 1440 1436 1432 1428 1426 1422 1417 1412 1407 1402 1396 1391 1385 1381 1377 1372 1368 1363
1449 1447 1444 1442 1439 1436 1434 1432 1431 1432 1433 1434 1437 1440 1443 1445 1447 1448 1449 1449 1448 1447 1445 1442 1439 1435 1431 1426 1423 1421 1417 1412 1407 1402 1397 1391 1386 1381 1375 1369 1365 1361 1357
1445 1443 1440 1436 1433 1430 1427 1425 1424 1424 1424 1426 1428 1431 1434 1437 1439 1441 1441 1442 1442 1441 1439 1437 1433 1429 1425 1421 1418 1415 1412 1407 1403 1398 1392 1386 1380 1375 1370 1364 1359 1354 1350
1442 1439 1435 1431 1427 1423 1420 1417 1416 1415 1416 1416 1419 1422 1426 1429 1431 1433 1435 1436 1436 1435 1433 1431 1427 1424 1420 1416 1413 1410 1406 1402 1398 1393 1388 1382 1377 1371 1367 1360 1354 1349 1343
1437 1432 1428 1424 1419 1416 1412 1409 1406 1405 1405 1406 1410 1414 1418 1421 1423 1426 1428 1429 1429 1429 1427 1425 1422 1419 1415 1411 1408 1405 1402 1397 1393 1388 1384 1379 1374 1369 1363 1357 1350 1344 1338
1430 1425 1421 1416 1412 1408 1404 1400 1397 1395 1396 1399 1402 1406 1409 1413 1417 1420 1422 1423 1423 1423 1422 1420 1417 1414 1410 1406 1403 1401 1398 1393 1389 1384 1379 1374 1370 1366 1360 1354 1348 1342 1336
1422 1417 1412 1407 1404 1399 1395 1391 1388 1388 1390 1392 1394 1398 1402 1406 1409 1412 1415 1416 1417 1417 1416 1414 1412 1409 1406 1402 1399 1396 1394 1390 1385 1381 1376 1371 1367 1362 1356 1351 1346 1340 1332
1413 1409 1404 1398 1395 1391 1386 1382 1381 1381 1382 1383 1385 1389 1394 1398 1401 1405 1407 1409 1410 1410 1410 1409 1407 1405 1402 1398 1395 1392 1389 1386 1382 1378 1374 1369 1364 1359 1353 1348 1343 1336 1329
1405 1400 1395 1389 1385 1381 1377 1374 1373 1372 1372 1373 1376 1380 1384 1389 1393 1396 1399 1402 1403 1404 1404 1403 1401 1399 1397 1394 1391 1388 1385 1381 1378 1374 1370 1366 1362 1357 1352 1346 1340 1334 1328
1397 1392 1387 1381 1376 1372 1368 1365 1363 1362 1363 1364 1367 1370 1375 1379 1384 1388 1391 1394 1396 1397 1398 1397 1396 1394 1392 1389 1387 1385 1381 1378 1375 1371 1367 1363 1359 1354 1349 1344 1338 1333 1327
1390 1384 1379 1373 1368 1363 1358 1355 1354 1353 1353 1354 1357 1361 1365 1370 1375 1380 1384 1387 1390 1391 1391 1391 1391 1389 1387 1385 1383 1381 1378 1375 1372 1368 1365 1361 1356 1352 1347 1342 1337 1331 1326